Weather History for KASJ - January, 2013

Change the Weather History Date:

Friday, January 25, 2013

  Actual Average (KEMV) Record (KEMV)
Temperature  
Mean Temperature 20 °F -  
Max Temperature 29 °F 51 °F 68 °F (1993)
Min Temperature 12 °F 28 °F 12 °F (2013)
Degree Days  
Heating Degree Days 46    
Moisture  
Dew Point 15 °F    
Average Humidity 79    
Maximum Humidity 91    
Minimum Humidity 48    
Precipitation  
Precipitation 0.30 in - - ()
Sea Level Pressure  
Sea Level Pressure 30.36 in    
Wind  
Wind Speed 0 mph (SSE)    
Max Wind Speed 5 mph    
Max Gust Speed -    
Visibility 8 miles    
Events Rain , Snow    
Averages and records for this station are not official NWS values.
T = Trace of Precipitation, MM = Missing Value Source: NWS Daily Summary

Daily Weather History Graph

Daily Weather History Graph

Search for Another Location

Airport or City:

Trip Planner

Search our weather history database for the weather conditions in past years. The results will help you decide how hot, cold, wet, or windy it might be!

Date:

Astronomy

Jan. 25, 2013 Rise Set
Actual Time 7:14 AM EST 5:27 PM EST
Civil Twilight 6:47 AM EST 5:55 PM EST
Nautical Twilight 6:16 AM EST 6:26 PM EST
Astronomical Twilight 5:45 AM EST 6:57 PM EST
Moon 4:23 PM EST (1/25) 5:52 AM EST (1/25)
Length of Visible Light 11h 08m
Length of Day
10h 13m
Waxing Gibbous, 98% of the Moon is Illuminated
Jan 25
Waxing Gibbous
Jan 26
Full
Feb 3
Last Quarter
Feb 10
New
Feb 17
First Quarter

Hourly Weather History & Observations

Time (EST) Temp. Windchill Dew Point Humidity Pressure Visibility Wind Dir Wind Speed Gust Speed Precip Events Conditions
12:15 AM 16.0 °F - 10.2 °F 78% 30.54 in 10.0 mi Calm Calm - N/A   Clear
12:35 AM 16.0 °F - 9.3 °F 75% 30.54 in 10.0 mi Calm Calm - N/A   Clear
12:55 AM 15.4 °F - 9.0 °F 76% 30.53 in 10.0 mi Calm Calm - N/A   Clear
1:15 AM 15.4 °F - 9.7 °F 78% 30.53 in 10.0 mi Calm Calm - N/A   Clear
1:35 AM 15.4 °F - 10.8 °F 82% 30.53 in 10.0 mi Calm Calm - N/A   Clear
1:55 AM 15.4 °F - 10.2 °F 80% 30.53 in 10.0 mi Calm Calm - N/A   Clear
2:15 AM 15.4 °F - 11.1 °F 83% 30.53 in 10.0 mi Calm Calm - N/A   Clear
2:35 AM 13.6 °F - 9.7 °F 84% 30.53 in 10.0 mi Calm Calm - N/A   Clear
2:55 AM 15.4 °F - 10.8 °F 82% 30.53 in 10.0 mi Calm Calm - N/A   Clear
3:15 AM 15.4 °F - 11.1 °F 83% 30.53 in 10.0 mi Calm Calm - N/A   Clear
3:35 AM 15.4 °F - 11.1 °F 83% 30.53 in 10.0 mi Calm Calm - N/A   Clear
3:55 AM 15.4 °F - 11.1 °F 83% 30.52 in 10.0 mi Calm Calm - N/A   Clear
4:15 AM 15.3 °F - 11.1 °F 84% 30.53 in 10.0 mi Calm Calm - N/A   Clear
4:35 AM 13.5 °F - 10.0 °F 86% 30.52 in 10.0 mi Calm Calm - N/A   Clear
4:55 AM 13.6 °F - 10.2 °F 86% 30.52 in 10.0 mi Calm Calm - N/A   Clear
5:15 AM 13.3 °F - 10.0 °F 87% 30.53 in 10.0 mi Calm Calm - N/A   Clear
5:35 AM 13.3 °F - 10.0 °F 87% 30.53 in 10.0 mi Calm Calm - N/A   Clear
5:55 AM 13.1 °F - 9.9 °F 87% 30.53 in 10.0 mi Calm Calm - N/A   Clear
6:15 AM 12.9 °F - 9.5 °F 86% 30.53 in 10.0 mi Calm Calm - N/A   Clear
6:35 AM 12.9 °F - 9.5 °F 86% 30.52 in 10.0 mi Calm Calm - N/A   Clear
6:55 AM 13.1 °F - 9.7 °F 86% 30.53 in 10.0 mi Calm Calm - N/A   Clear
7:15 AM 13.5 °F - 10.4 °F 88% 30.53 in 10.0 mi Calm Calm - N/A   Clear
7:35 AM 15.4 °F - 12.0 °F 86% 30.52 in 10.0 mi Calm Calm - N/A   Clear
7:55 AM 16.0 °F - 12.2 °F 85% 30.50 in 10.0 mi Calm Calm - N/A   Clear
8:15 AM 18.0 °F - 13.1 °F 81% 30.51 in 10.0 mi Calm Calm - N/A   Clear
8:35 AM 18.9 °F - 13.5 °F 79% 30.50 in 10.0 mi Calm Calm - N/A   Clear
8:55 AM 20.7 °F 15.8 °F 11.8 °F 69% 30.49 in 10.0 mi NE 3.5 mph - N/A   Clear
9:15 AM 22.8 °F - 11.8 °F 63% 30.46 in 10.0 mi Calm Calm - N/A   Clear
9:35 AM 23.2 °F - 9.7 °F 56% 30.47 in 10.0 mi Calm Calm - N/A   Clear
9:55 AM 25.3 °F - 9.9 °F 52% 30.47 in 10.0 mi Calm Calm - N/A   Clear
10:15 AM 25.3 °F - 9.0 °F 50% 30.47 in 10.0 mi Calm Calm - N/A   Clear
10:35 AM 25.3 °F - 9.3 °F 51% 30.47 in 10.0 mi Calm Calm - N/A   Clear
10:55 AM 25.3 °F - 8.6 °F 49% 30.45 in 10.0 mi Calm Calm - N/A   Mostly Cloudy
11:15 AM 25.3 °F - 8.4 °F 49% 30.44 in 10.0 mi Calm Calm - N/A   Overcast
11:35 AM 25.3 °F 19.7 °F 8.2 °F 48% 30.40 in 10.0 mi SE 4.6 mph - N/A   Scattered Clouds
11:55 AM 25.5 °F 19.9 °F 9.0 °F 50% 30.39 in 10.0 mi South 4.6 mph - N/A   Mostly Cloudy
12:15 PM 25.9 °F 21.7 °F 9.1 °F 49% 30.37 in 10.0 mi SSE 3.5 mph - N/A   Overcast
12:35 PM 27.0 °F - 9.7 °F 48% 30.35 in 10.0 mi Calm Calm - N/A   Overcast
12:55 PM 27.9 °F 24.0 °F 10.2 °F 48% 30.33 in 10.0 mi South 3.5 mph - N/A   Overcast
1:15 PM 27.9 °F - 10.8 °F 49% 30.32 in 10.0 mi Calm Calm - N/A   Overcast
1:35 PM 27.9 °F 24.0 °F 10.9 °F 49% 30.31 in 10.0 mi South 3.5 mph - N/A   Mostly Cloudy
1:55 PM 25.3 °F 21.1 °F 19.4 °F 78% 30.30 in 0.5 mi SSW 3.5 mph - N/A Snow Light Snow
2:15 PM 25.3 °F - 21.2 °F 84% 30.28 in 1.2 mi Calm Calm - N/A Snow Light Snow
2:35 PM 25.3 °F - 21.2 °F 84% 30.30 in 5.0 mi Calm Calm - N/A Snow Light Snow
2:55 PM 25.3 °F - 21.9 °F 87% 30.28 in 2.0 mi Calm Calm - N/A Snow Light Snow
3:15 PM 25.3 °F - 22.3 °F 88% 30.25 in 0.8 mi Calm Calm - 0.01 in Snow Snow
3:35 PM 25.3 °F - 22.6 °F 89% 30.24 in 0.5 mi Calm Calm - 0.01 in Snow Snow
3:55 PM 25.3 °F - 22.6 °F 89% 30.22 in 0.2 mi Calm Calm - 0.01 in Snow Snow
4:15 PM 25.3 °F - 22.8 °F 90% 30.21 in 0.8 mi Calm Calm - N/A Snow Light Snow
4:35 PM 25.3 °F - 22.8 °F 90% 30.20 in 1.0 mi Calm Calm - 0.04 in Snow Light Snow
4:55 PM 25.3 °F 19.7 °F 22.8 °F 90% 30.20 in 1.0 mi North 4.6 mph - 0.04 in Snow Light Snow
5:15 PM 25.3 °F 21.1 °F 22.8 °F 90% 30.19 in 1.2 mi North 3.5 mph - 0.03 in Snow Light Snow
5:35 PM 25.3 °F - 22.8 °F 90% 30.18 in 3.0 mi Calm Calm - 0.05 in Snow Light Snow
5:55 PM 25.3 °F - 22.8 °F 90% 30.17 in 2.5 mi Calm Calm - 0.06 in Snow Light Snow
6:15 PM 25.3 °F - 22.8 °F 90% 30.17 in 2.5 mi Calm Calm - 0.03 in Snow Snow
6:35 PM 25.3 °F 21.1 °F 22.8 °F 90% 30.18 in 3.0 mi NNW 3.5 mph - 0.06 in Rain Light Freezing Rain
6:55 PM 25.3 °F - 23.0 °F 91% 30.18 in 1.8 mi Calm Calm - 0.09 in Rain Light Freezing Rain
7:15 PM 25.3 °F - 23.0 °F 91% 30.17 in 2.5 mi Calm Calm - 0.03 in Rain Light Freezing Rain
7:35 PM 25.3 °F - 23.0 °F 91% 30.17 in 3.0 mi Calm Calm - 0.05 in Rain Light Freezing Rain
7:55 PM 25.3 °F - 23.0 °F 91% 30.15 in 5.0 mi Calm Calm - 0.06 in Rain Light Freezing Rain
8:15 PM 25.3 °F - 23.0 °F 91% 30.14 in 10.0 mi Calm Calm - N/A   Overcast
8:35 PM 25.3 °F - 23.0 °F 91% 30.14 in 10.0 mi Calm Calm - 0.01 in   Overcast
8:55 PM 25.3 °F - 23.0 °F 91% 30.12 in 10.0 mi Calm Calm - 0.02 in   Overcast
9:15 PM 25.3 °F - 23.0 °F 91% 30.13 in 10.0 mi Calm Calm - 0.01 in   Mostly Cloudy
9:35 PM 25.3 °F - 23.0 °F 91% 30.14 in 10.0 mi Calm Calm - 0.01 in   Overcast
9:55 PM 25.3 °F - 23.0 °F 91% 30.12 in 10.0 mi Calm Calm - 0.01 in   Overcast
10:15 PM 25.3 °F - 23.0 °F 91% 30.13 in 10.0 mi Calm Calm - 0.01 in   Overcast
10:55 PM 25.3 °F - 23.0 °F 91% 30.13 in 10.0 mi Calm Calm - 0.01 in   Overcast
11:15 PM 25.3 °F - 23.0 °F 91% 30.12 in 10.0 mi Calm Calm - N/A   Overcast
11:35 PM 25.3 °F - 23.0 °F 91% 30.11 in 10.0 mi Calm Calm - N/A   Overcast
11:55 PM 25.3 °F - 23.0 °F 91% 30.11 in 7.0 mi Calm Calm - N/A   Overcast